User: anonymous   Login
Location: Township of South Roscoe
(37.9570°N, 100.1180°W)
Time: 10:07:45
(UTC+00:00)
Language:

BREEZE-M DEB (TANK) - Orbit

View from above orbital plane
View from above orbital plane
View from above satellite
View from above satellite

Ground track
Ground track

The orbit data is extracted from the following two-line orbital elements,

1 34712U 09016C   22018.15798177  .00003320  00000-0  59963-3 0  9994
2 34712  46.0569 289.9056 5037226 186.7756 162.4884  5.55491286252752
Epoch (UTC): 18 January 2022 03:47:29
Eccentricity: 0.5037226
inclination: 46.0569°
perigee height: 305 km
apogee height: 13873 km
right ascension of ascending node: 289.9056°
argument of perigee: 186.7756°
revolutions per day: 5.55491286
mean anomaly at epoch: 162.4884°
orbit number at epoch: 25275

The dashed part of the orbit path shows where the satellite is in the earth's shadow,  

DLR